Home   Weather   Mödling   Past weeks

Flag for Austria Past Weather in Mödling, Lower Austria, Austria — Yesterday and Last 2 Weeks

Now
61 °F

Scattered clouds.


Feels Like: 61 °F
Forecast: 58 / 66 °F
Wind: 8 mph from West

Location: Wien / Hohe Warte

Current Time: Jul 25, 2017 at 8:51:48 am

Latest Report: Jul 25, 2017 at 8:00 am


Visibility: 28 mi

Pressure: 29.70 "Hg

Humidity: 68%

Dew Point: 51 °F

Location of MödlingLocation

Past Weather in Mödling — Graph

°F

Mödling Temperature Yesterday

Maximum temperature yesterday: 73 °F (at 1:00 pm)
Minimum temperature yesterday: 61 °F (at 11:00 pm)
Average temperature yesterday: 67 °F

High & Low Weather Summary for the Past Weeks

 TemperatureHumidityPressure
High94 °F (Jul 20, 4:00 pm)96% (Jul 10, 11:00 pm)30.24 "Hg (Jul 10, 11:00 pm)
Low54 °F (Jul 14, 6:00 am)25% (Jul 20, 5:00 pm)29.64 "Hg (Jul 24, 4:00 pm)
Average72 °F60%29.96 "Hg
* Reported Jul 10 7:00 am — Jul 25 7:00 am, Mödling. Weather by CustomWeather, © 2017

Note: Actual official high and low records may vary slightly from our data, if they occured in-between our weather recording intervals... More about our weather records

Advertising

Mödling Weather History for the Previous 24 Hours

Scroll right to see more
 ConditionsComfort  
Time TempWeatherWind HumidityBarometerVisibility
7:00 am
Tue, Jul 25
60 °FOvercast.8 mph73%29.70 "Hg25 mi
6:00 am60 °FCool.7 mph75%29.69 "HgN/A
5:00 am60 °FCool.8 mph75%29.68 "HgN/A
4:00 am60 °FSprinkles. Overcast.6 mph79%29.69 "HgN/A
3:00 am61 °FCool.7 mph77%29.70 "HgN/A
2:00 am61 °FLight rain. Overcast.7 mph77%29.70 "Hg19 mi
1:00 am61 °FCool.7 mph77%29.71 "HgN/A
12:00 am62 °FCool.9 mph79%29.70 "HgN/A
11:00 pm
Mon, Jul 24
61 °FOvercast.9 mph81%29.67 "Hg16 mi
10:00 pm63 °FPassing clouds.7 mph85%29.69 "Hg19 mi
9:00 pm64 °FLight rain. Overcast.7 mph88%29.67 "Hg19 mi
8:00 pm65 °FLight rain. Overcast.5 mph90%29.68 "Hg25 mi
7:00 pm65 °FRain. Overcast.3 mph89%29.67 "Hg8 mi
6:00 pm66 °FRain. Overcast.5 mph91%29.66 "Hg9 mi
5:00 pm68 °FOvercast.2 mph90%29.65 "Hg11 mi
4:00 pm69 °FOvercast.2 mph79%29.64 "Hg14 mi
3:00 pm67 °FLight rain. Overcast.3 mph89%29.67 "Hg12 mi
2:00 pm68 °FRain. Low clouds.1 mph84%29.71 "Hg4 mi
1:00 pm73 °FOvercast.2 mph67%29.72 "Hg17 mi
12:00 pm72 °FOvercast.2 mph70%29.76 "Hg17 mi
11:00 am70 °FOvercast.1 mph74%29.80 "Hg16 mi
10:00 am68 °FOvercast.No wind78%29.82 "Hg16 mi
9:00 am65 °FLight rain. Overcast.1 mph88%29.85 "Hg12 mi
8:00 am65 °FOvercast.1 mph93%29.87 "Hg11 mi
Weather by CustomWeather, © 2017

See weather overviewHow to use our weather pages